This is the latest recevied weather packets stored in our database for station/object LU5DTF-1. If no packets are shown the sender has not sent any weather packets the latest 10 day(s).
| Time | Temp. | Humidity | Pressure | Rain* | Wind** | Luminosity | Snow |
|---|---|---|---|---|---|---|---|
| 1777844103 | 13.89° C | 57% | 1013.5 hPa | 0 mm | - | - | - |
| 1777843803 | 13.89° C | 56% | 1013.5 hPa | 0 mm | - | - | - |
| 1777843503 | 13.89° C | 56% | 1013.6 hPa | 0 mm | - | - | - |
| 1777843203 | 13.89° C | 56% | 1013.4 hPa | 0 mm | - | - | - |
| 1777842904 | 13.89° C | 57% | 1013.4 hPa | 0 mm | - | - | - |
| 1777842604 | 13.89° C | 56% | 1013.6 hPa | 0 mm | - | - | - |
| 1777842304 | 13.89° C | 54% | 1013.5 hPa | 0 mm | - | - | - |
| 1777842004 | 13.89° C | 57% | 1013.6 hPa | 0 mm | - | - | - |
| 1777841704 | 13.89° C | 55% | 1013.6 hPa | 0 mm | - | - | - |
| 1777841404 | 13.89° C | 56% | 1013.6 hPa | 0 mm | - | - | - |
| 1777841103 | 13.89° C | 56% | 1013.6 hPa | 0 mm | - | - | - |
| 1777840803 | 13.89° C | 55% | 1013.6 hPa | 0 mm | - | - | - |
| 1777840504 | 13.89° C | 57% | 1013.6 hPa | 0 mm | - | - | - |
| 1777840204 | 13.89° C | 55% | 1013.6 hPa | 0 mm | - | - | - |
| 1777839904 | 13.89° C | 56% | 1013.8 hPa | 0 mm | - | - | - |
| 1777839603 | 13.89° C | 56% | 1013.9 hPa | 0 mm | - | - | - |
| 1777839304 | 13.89° C | 55% | 1013.7 hPa | 0 mm | - | - | - |
| 1777839003 | 13.89° C | 56% | 1013.8 hPa | 0 mm | - | - | - |
| 1777838703 | 13.89° C | 56% | 1013.7 hPa | 0 mm | - | - | - |
| 1777838404 | 13.89° C | 55% | 1013.9 hPa | 0 mm | - | - | - |
| 1777838104 | 13.89° C | 54% | 1014 hPa | 0 mm | - | - | - |
| 1777837803 | 13.89° C | 55% | 1014.2 hPa | 0 mm | - | - | - |
| 1777837504 | 13.89° C | 54% | 1014.3 hPa | 0 mm | - | - | - |
| 1777837204 | 13.89° C | 54% | 1014.3 hPa | 0 mm | - | - | - |
| 1777836903 | 13.89° C | 53% | 1014.4 hPa | 0 mm | - | - | - |
* Rain latest hour (hover to see other rain measurements)
** Current wind speed in m/s (hover to see current wind gust speed)